sat.trackr.live / text

‹ back to catalog

STARLINK-32034

NORAD 60297 · 2024-132V

PAYLOAD ACTIVE UNKNOWN

§ Identity

Operator
Country
US
Launch date
2024-07-28
Launch site
AFETR
Launch vehicle
Mass (kg)
RCS (m²)

Purposes: comms

External: N2YO · Heavens-Above · Gunter

§ Orbital elements

Epoch: 2026-09-21T06:10:26.214240Z

Period
94.01 min
Inclination
53.1593°
Eccentricity
0.0001353
Mean motion
15.31700562 rev/d
Perigee alt
469.8 km
Apogee alt
471.7 km
Semi-major
6,848.9 km
B*
-4.3437e-6
RAAN
222.5523°
Arg perigee
96.6927°
Mean anomaly
263.4229°
Rev number
12,152

§ Raw data

STARLINK-320341 60297U 24132V   26264.25724785 -.00000500  00000+0 -43437-5 0  99982 60297  53.1593 222.5523 0001353  96.6927 263.4229 15.31700562121523

JSON: /api/v1/satellites/60297 · /tle

For live sub-satellite position, see the globe view (requires WebGL).

§ Visibility from observer

Set your observer location to see the next 7 days of passes ≥ 10°. The values pass through the URL so the page stays shareable.

No JS? Fill the form by hand. The geolocation button needs JavaScript.